[[{"header":{"parameterUnit":"m.s-1","parameterCategory":2,"la1":30.2991,"la2":30.254,"lo1":-89.0895,"lo2":-89.0444,"dy":0.0017,"dx":0.0017,"nx":28,"ny":28,"refTime":"2025-05-17T21:00:00:Z","depth":"0","parameterNumber":2,"parameterNumberName":"U-component_of_CURRENTS"},"data":[0,0,0,0,0,0,0,0,0,0,0,0,0,0,0,0,0,0,0,0,0,0,0,0,0,0,0,0,0,0,0,0,0,0,0,0,0,0,0,0,0,0,0,0,0,0,0,0,0,0,0,0,0,0,0,0,0,0,-0.2438,-0.2438,0,-0.235,-0.2348,-0.2346,-0.2257,-0.2257,-0.2257,-0.2257,-0.2066,-0.2061,-0.2056,0,0,0,0,0,0,0,0,0,0,0,0,0,-0.2383,-0.2384,-0.2438,-0.2438,-0.2438,-0.2351,-0.2348,-0.2346,-0.2257,-0.2257,-0.2257,-0.2257,-0.2067,-0.2061,-0.2055,0,0,0,0,0,0,0,0,0,0,0,0,0,-0.235,-0.2384,-0.2438,-0.2393,-0.2389,-0.2351,-0.2348,-0.2345,-0.2257,-0.2257,-0.2257,-0.2257,-0.2069,-0.2062,-0.2054,-0.2008,0,0,-0.2031,-0.2028,0,0,0,0,0,0,0,0,-0.2352,-0.2351,-0.2399,-0.2396,-0.2392,-0.2326,-0.2259,-0.2232,-0.2257,-0.2293,-0.2257,-0.2257,-0.2152,-0.2137,-0.2104,-0.1999,-0.1991,-0.203,-0.2026,-0.2023,-0.202,0,0,0,0,0,0,0,-0.2355,-0.2353,-0.239,-0.24,-0.2395,-0.2328,-0.2323,-0.2252,-0.2211,-0.229,-0.2287,-0.2298,-0.2147,-0.2111,-0.2099,-0.1988,-0.2031,-0.2024,-0.2019,-0.2016,-0.1855,-0.1856,0,0,0,0,0,0,-0.24,-0.2356,-0.2393,-0.2389,-0.2386,-0.2331,-0.2325,-0.2336,-0.2214,-0.2201,-0.2298,-0.2294,-0.2124,-0.2108,-0.2092,-0.2024,-0.2023,-0.2015,-0.2011,-0.1855,-0.1855,-0.1856,0,0,0,0,0,0,-0.2399,-0.2404,-0.2397,-0.238,-0.2376,-0.2334,-0.2346,-0.2335,-0.23,-0.2224,-0.2205,-0.2277,-0.2124,-0.2102,-0.2037,-0.2017,-0.2012,-0.2005,-0.1855,-0.1855,-0.1856,-0.1893,0,0,0,0,0,0,-0.2398,-0.2404,-0.2388,-0.2384,-0.238,-0.2372,-0.2348,-0.2334,-0.2313,-0.2307,-0.22,-0.2182,-0.2122,-0.2049,-0.203,-0.2006,-0.1999,-0.1854,-0.1855,-0.1855,-0.1891,-0.1895,-0.1898,0,0,0,0,0,-0.2396,-0.2336,-0.2388,-0.2391,-0.2373,-0.2373,-0.2362,-0.2322,-0.2313,-0.229,-0.2233,-0.2185,-0.2039,-0.2043,-0.202,-0.1994,-0.1854,-0.1855,-0.1855,-0.189,-0.1894,-0.1897,0,0,0,0,0,0,-0.2253,-0.2325,-0.2379,-0.2336,-0.2379,-0.2363,-0.2306,-0.2327,-0.2262,-0.224,-0.218,-0.2157,-0.2095,-0.2048,-0.2054,-0.1955,-0.1942,-0.1938,-0.1976,-0.1979,-0.1982,-0.197,-0.1993,0,0,0,0,0,-0.2244,-0.2243,-0.2322,-0.2288,-0.2307,-0.2326,-0.2309,-0.2316,-0.2284,-0.2254,-0.2198,-0.2133,-0.2079,-0.2035,-0.1974,-0.191,-0.187,-0.1884,-0.1887,-0.189,-0.1868,-0.1831,-0.1828,-0.1858,-0.1858,-0.1858,0,0,-0.2179,-0.2219,-0.2213,-0.2264,-0.2272,-0.2283,-0.2307,-0.2288,-0.2285,-0.2241,-0.2167,-0.2137,-0.2069,-0.2003,-0.197,-0.1957,-0.186,-0.1891,-0.1893,-0.1869,-0.1831,-0.1828,-0.1825,-0.1858,-0.1858,-0.1858,0,0,-0.2065,-0.2096,-0.2082,-0.2122,-0.2179,-0.2207,-0.2222,-0.2242,-0.2228,-0.2196,-0.2171,-0.2131,-0.2035,-0.199,-0.1955,-0.1937,-0.1885,-0.1933,-0.1919,-0.1885,-0.1882,-0.1878,-0.1819,-0.181,-0.1925,-0.1925,-0.1925,0,-0.1985,-0.2008,-0.2068,-0.2077,-0.2096,-0.2187,-0.2188,-0.2187,-0.2184,-0.2168,-0.2168,-0.2059,-0.2017,-0.1945,-0.1957,-0.1937,-0.1914,-0.191,-0.1888,-0.1884,-0.1879,-0.182,-0.1809,-0.1927,-0.1927,-0.1927,-0.1926,0,-0.1909,-0.1923,-0.1899,-0.1977,-0.1993,-0.1999,-0.2071,-0.2068,-0.2085,-0.2097,-0.2045,-0.2005,-0.1945,-0.1941,-0.194,-0.1901,-0.1893,-0.1905,-0.1877,-0.1879,-0.1816,-0.1804,-0.193,-0.1929,-0.1928,-0.1928,0,0,-0.1766,-0.1841,-0.1841,-0.1879,-0.1954,-0.1967,-0.1959,-0.1994,-0.1993,-0.1976,-0.1953,-0.1891,-0.1907,-0.1872,-0.1879,-0.1857,-0.1829,-0.1884,-0.1881,-0.1821,-0.1744,-0.1615,-0.159,-0.1856,-0.1854,-0.1853,-0.171,0,-0.1712,-0.1716,-0.177,-0.1776,-0.1797,-0.1869,-0.1866,-0.1895,-0.1919,-0.1916,-0.1891,-0.1872,-0.1874,-0.1878,-0.1851,-0.1862,-0.1802,-0.1865,-0.1753,-0.1748,-0.1631,-0.1573,-0.1409,-0.1257,-0.1698,-0.1696,-0.1695,0,-0.1661,-0.1676,-0.1671,-0.1731,-0.1744,-0.1751,-0.1788,-0.1807,-0.1828,-0.1844,-0.1819,-0.1834,-0.1808,-0.1827,-0.1752,-0.1805,-0.1762,-0.1745,-0.1739,-0.1591,-0.1597,-0.1328,-0.1219,-0.1277,-0.1677,-0.1678,-0.1679,0,-0.1583,-0.1619,-0.1618,-0.1635,-0.1697,-0.169,-0.1729,-0.1762,-0.1781,-0.1817,-0.181,-0.1796,-0.1754,-0.1744,-0.1695,-0.1749,-0.1599,-0.1662,-0.1468,-0.1459,-0.1273,-0.1249,-0.1195,-0.1554,-0.1554,-0.1554,-0.1555,0,-0.1528,-0.1528,-0.1581,-0.1576,-0.1589,-0.164,-0.166,-0.1697,-0.1732,-0.1667,-0.1773,-0.1662,-0.1733,-0.1656,-0.1666,-0.15,-0.155,-0.1425,-0.14,-0.1281,-0.1261,-0.1267,-0.1336,-0.1549,-0.155,-0.1551,-0.1552,0,-0.1446,-0.1487,-0.1497,-0.1537,-0.1558,-0.1566,-0.1642,-0.1623,-0.1684,-0.1599,-0.1602,-0.1561,-0.1415,-0.1452,-0.1383,-0.1382,-0.1275,-0.1225,-0.1067,-0.1025,-0.0938,-0.1014,-0.0897,-0.0869,-0.102,-0.1016,-0.1012,0,-0.1407,-0.1396,-0.1455,-0.1458,-0.1474,-0.1512,-0.1504,-0.1594,-0.1541,-0.1434,-0.1323,-0.1209,-0.0957,-0.087,-0.0908,-0.0879,-0.0982,-0.0752,-0.0811,-0.0864,-0.0934,-0.1031,-0.1026,-0.0585,-0.0579,-0.0573,-0.0569,0,-0.13,-0.1324,-0.1324,-0.1336,-0.1333,-0.1338,-0.1309,-0.1278,-0.1243,-0.114,-0.0824,-0.0626,-0.0463,-0.0284,-0.0336,-0.0373,-0.0752,-0.0633,-0.0728,-0.0594,-0.0653,-0.0636,-0.0762,-0.0519,-0.0524,-0.0528,-0.0531,-0.0532,-0.121,-0.1189,-0.1172,-0.1182,-0.1173,-0.1059,-0.0998,-0.0898,-0.0747,-0.0476,-0.0347,0.0001,0.018,0.0184,0.0046,-0.0162,-0.0274,-0.0212,-0.0299,-0.0394,-0.0361,-0.0358,-0.0075,-0.0077,-0.0079,-0.0081,-0.0083,0,-0.1046,-0.1017,-0.1005,-0.0965,-0.0864,-0.0917,-0.077,-0.0641,-0.035,-0.0094,0.0197,0.0578,0.0717,0.0591,0.0398,0.0202,0.0028,0.0047,-0.0083,-0.0095,-0.0091,-0.0068,0.0279,0.0279,0.0279,0.0279,0.0279,0.0279,-0.0954,-0.0853,-0.0845,-0.0643,-0.0609,-0.0417,-0.0302,-0.0112,0.0067,0.0471,0.071,0.0865,0.0891,0.0721,0.0401,0.0269,0.0068,0.0078,-0.0083,-0.0133,-0.0167,-0.02,-0.0196,0.0118,0.0118,-0.0014,-0.0015,-0.0016]},{"header":{"parameterUnit":"m.s-1","parameterCategory":2,"la1":30.2991,"la2":30.254,"lo1":-89.0895,"lo2":-89.0444,"dy":0.0017,"dx":0.0017,"nx":28,"ny":28,"refTime":"2025-05-17T21:00:00:Z","depth":"0","parameterNumber":3,"parameterNumberName":"V-component_of_CURRENTS"},"data":[0,0,0,0,0,0,0,0,0,0,0,0,0,0,0,0,0,0,0,0,0,0,0,0,0,0,0,0,0,0,0,0,0,0,0,0,0,0,0,0,0,0,0,0,0,0,0,0,0,0,0,0,0,0,0,0,0,0,0.0221,0.0223,0,0.0252,0.0252,0.0251,0.0243,0.0244,0.0244,0.0244,0.0192,0.019,0.0188,0,0,0,0,0,0,0,0,0,0,0,0,0,0.0051,0.0054,0.0221,0.0223,0.0224,0.0252,0.0252,0.0251,0.0243,0.0244,0.0244,0.0244,0.0192,0.019,0.0188,0,0,0,0,0,0,0,0,0,0,0,0,0,0.0099,0.0055,0.0221,0.023,0.0232,0.0252,0.0252,0.0251,0.0243,0.0244,0.0244,0.0244,0.0193,0.0191,0.0188,0.0165,0,0,0.018,0.0179,0,0,0,0,0,0,0,0,0.0096,0.0104,0.0228,0.023,0.0232,0.0253,0.0173,0.0221,0.0243,0.0229,0.0244,0.0245,0.021,0.0207,0.0199,0.0162,0.016,0.018,0.0179,0.0178,0.0177,0,0,0,0,0,0,0,0.0093,0.0102,0.0224,0.0229,0.0232,0.0198,0.0205,0.0181,0.0208,0.023,0.0232,0.0251,0.021,0.0201,0.0198,0.0159,0.018,0.0178,0.0177,0.0176,0.01,0.0099,0,0,0,0,0,0,0.0115,0.01,0.0223,0.0226,0.0175,0.0202,0.0209,0.0238,0.021,0.021,0.025,0.0251,0.0205,0.02,0.0196,0.0154,0.0178,0.0175,0.0174,0.01,0.01,0.0099,0,0,0,0,0,0,0.0111,0.0126,0.0222,0.017,0.0181,0.0206,0.0237,0.0239,0.0234,0.0228,0.0224,0.0247,0.0205,0.0199,0.0164,0.0152,0.0174,0.0172,0.0101,0.01,0.0099,0.0077,0,0,0,0,0,0,0.0106,0.0124,0.0119,0.0172,0.0186,0.0227,0.0238,0.0239,0.025,0.025,0.0224,0.0219,0.0205,0.0168,0.0162,0.0149,0.017,0.0102,0.0101,0.01,0.0079,0.0076,0.0074,0,0,0,0,0,0.01,0.0068,0.0119,0.0132,0.019,0.0227,0.0228,0.024,0.025,0.0238,0.022,0.022,0.0158,0.0165,0.0158,0.0144,0.0102,0.0101,0.01,0.008,0.0077,0.0074,0,0,0,0,0,0,-0.0039,0.0069,0.0123,0.0121,0.0184,0.0229,0.02,0.0241,0.0219,0.0206,0.0204,0.0197,0.0173,0.0157,0.0166,0.0121,0.0134,0.0131,0.0121,0.0118,0.0115,0.0051,0.0168,0,0,0,0,0,-0.0053,-0.0032,0.0074,0.0072,0.0099,0.0161,0.0168,0.0201,0.021,0.0201,0.0199,0.018,0.0161,0.0138,0.0126,0.0085,0.0105,0.0076,0.0074,0.0071,0.0015,0.0028,0.0021,0.0095,0.0095,0.0095,0,0,-0.0103,-0.0046,-0.0033,0.0047,0.0082,0.0082,0.0161,0.0177,0.0158,0.0196,0.0141,0.0176,0.0154,0.012,0.0106,0.0101,0.0081,0.007,0.0068,0.0011,0.0026,0.0019,0.0012,0.0095,0.0095,0.0095,0,0,-0.0195,-0.0138,-0.0141,-0.0102,-0.0026,0.0009,0.0023,0.0094,0.01,0.0096,0.0115,0.0132,0.0105,0.0087,0.0071,0.004,0.008,0.0057,-0.0031,-0.0016,-0.0022,-0.0028,0.0077,0.008,0.0038,0.0038,0.0038,0,-0.0255,-0.0238,-0.0145,-0.015,-0.0145,-0.0026,-0.0048,-0.0033,0.0017,0.001,0.0068,0.0063,0.0076,0.0009,0.0008,0.003,0.0073,-0.0013,-0.002,-0.0026,-0.0032,0.0076,0.008,0.0037,0.0037,0.0037,0.0037,0,-0.033,-0.0333,-0.0348,-0.0304,-0.0295,-0.0294,-0.0229,-0.022,-0.0166,-0.0128,-0.0123,-0.007,-0.0086,-0.0044,-0.0034,-0.0072,-0.0007,-0.0006,-0.0013,-0.0041,0.0077,0.0081,0.0035,0.0036,0.0036,0.0036,0,0,-0.0395,-0.0394,-0.0395,-0.0419,-0.0371,-0.0373,-0.041,-0.0396,-0.0423,-0.0337,-0.035,-0.0329,-0.0254,-0.0269,-0.0209,-0.0185,-0.0123,-0.0125,-0.0123,-0.0022,-0.0023,0.0052,0.0065,-0.0121,-0.0123,-0.0124,0.011,0,-0.0465,-0.0538,-0.0503,-0.059,-0.0627,-0.0564,-0.0609,-0.0592,-0.0541,-0.0524,-0.0439,-0.0413,-0.0358,-0.0312,-0.03,-0.015,-0.013,-0.0184,-0.0014,-0.0009,0.0057,0.0064,0.0156,0.0369,0.0114,0.0115,0.0115,0,-0.052,-0.0574,-0.0673,-0.0738,-0.0743,-0.0784,-0.0824,-0.0839,-0.0799,-0.0741,-0.0705,-0.06,-0.0537,-0.0463,-0.031,-0.0341,-0.023,-0.0108,-0.0096,-0.0044,0.0068,0.0336,0.0387,0.0406,0.0122,0.0122,0.0121,0,-0.0608,-0.0684,-0.0783,-0.0804,-0.0857,-0.0904,-0.0926,-0.0919,-0.0873,-0.0866,-0.0748,-0.0738,-0.0571,-0.0523,-0.0257,-0.029,-0.0033,-0.0044,0.0118,0.0131,0.0225,0.0245,0.0293,-0.0007,-0.0007,-0.0008,-0.0009,0,-0.0684,-0.0757,-0.0845,-0.0899,-0.101,-0.1019,-0.1066,-0.1087,-0.0999,-0.0872,-0.0859,-0.0665,-0.057,-0.0371,-0.0276,-0.0021,-0.0056,0.0091,0.0165,0.0233,0.025,0.028,0.0267,0.0001,-0.0001,-0.0003,-0.0004,0,-0.0744,-0.079,-0.0918,-0.1025,-0.105,-0.114,-0.1086,-0.1051,-0.1004,-0.0812,-0.0762,-0.0541,-0.0294,-0.0184,0.0022,0.007,0.0285,0.03,0.042,0.0498,0.059,0.0574,0.0678,0.0762,0.0479,0.0482,0.0484,0,-0.0774,-0.0851,-0.1007,-0.1039,-0.1082,-0.1153,-0.1109,-0.1074,-0.0946,-0.0655,-0.049,-0.0231,0.005,0.0338,0.0381,0.0498,0.0497,0.0656,0.0543,0.059,0.0627,0.0599,0.0659,0.0729,0.0733,0.0736,0.0739,0,-0.0828,-0.0889,-0.0983,-0.1055,-0.1063,-0.1029,-0.0954,-0.0839,-0.0659,-0.0452,-0.0059,0.0171,0.0448,0.0664,0.0747,0.079,0.069,0.0727,0.0727,0.0758,0.0778,0.09,0.0642,0.0769,0.0766,0.0764,0.0762,0.0761,-0.0837,-0.0909,-0.0983,-0.1037,-0.1004,-0.0837,-0.0734,-0.054,-0.0287,0.0119,0.0267,0.0637,0.0864,0.0993,0.0989,0.0993,0.0946,0.103,0.1005,0.0971,0.1013,0.0842,0.1054,0.1053,0.1052,0.1051,0.105,0,-0.0802,-0.0848,-0.0908,-0.09,-0.076,-0.0778,-0.0532,-0.0328,0.0035,0.0363,0.0683,0.1058,0.124,0.1282,0.1301,0.1286,0.1235,0.1291,0.1251,0.1299,0.1129,0.1094,0.1381,0.1381,0.1381,0.1381,0.1381,0.1381,-0.0775,-0.0795,-0.0826,-0.063,-0.0574,-0.0319,-0.0152,0.0122,0.0379,0.0879,0.1168,0.136,0.1505,0.1454,0.1443,0.1443,0.1447,0.1462,0.1456,0.1292,0.1264,0.1237,0.1198,0.1503,0.1503,0.1672,0.1673,0.1674]}],[{"header":{"parameterUnit":"m.s-1","parameterCategory":2,"la1":30.2991,"la2":30.254,"lo1":-89.0895,"lo2":-89.0444,"dy":0.0017,"dx":0.0017,"nx":28,"ny":28,"refTime":"2025-05-17T21:00:00:Z","depth":"2","parameterNumber":2,"parameterNumberName":"U-component_of_CURRENTS"},"data":[0,0,0,0,0,0,0,0,0,0,0,0,0,0,0,0,0,0,0,0,0,0,0,0,0,0,0,0,0,0,0,0,0,0,0,0,0,0,0,0,0,0,0,0,0,0,0,0,0,0,0,0,0,0,0,0,0,0,-0.1758,-0.1757,0,-0.1734,-0.1735,-0.1735,-0.1759,-0.1759,-0.1759,-0.1759,-0.1976,-0.1982,-0.1987,0,0,0,0,0,0,0,0,0,0,0,0,0,-0.1768,-0.1769,-0.1758,-0.1757,-0.1756,-0.1734,-0.1735,-0.1735,-0.1759,-0.1759,-0.1759,-0.1759,-0.1974,-0.1981,-0.1988,0,0,0,0,0,0,0,0,0,0,0,0,0,-0.1766,-0.1769,-0.1759,-0.1757,-0.1756,-0.1734,-0.1735,-0.1736,-0.1759,-0.1759,-0.1759,-0.1759,-0.1972,-0.198,-0.1989,-0.2042,0,0,-0.2015,-0.2019,0,0,0,0,0,0,0,0,-0.1766,-0.1767,-0.1759,-0.1757,-0.1756,-0.1741,-0.1817,-0.1847,-0.1759,-0.1768,-0.1759,-0.1759,-0.1913,-0.1927,-0.1933,-0.2052,-0.2062,-0.2016,-0.2021,-0.2025,-0.2028,0,0,0,0,0,0,0,-0.1766,-0.1767,-0.1759,-0.1757,-0.1756,-0.1738,-0.1739,-0.1822,-0.1853,-0.1768,-0.1767,-0.1748,-0.1916,-0.1924,-0.1939,-0.2065,-0.2016,-0.2024,-0.2029,-0.2032,-0.2168,-0.2167,0,0,0,0,0,0,-0.1752,-0.1768,-0.176,-0.1757,-0.175,-0.1737,-0.1739,-0.1754,-0.1847,-0.1856,-0.1748,-0.1749,-0.1909,-0.1929,-0.1947,-0.1969,-0.2025,-0.2033,-0.2038,-0.217,-0.2168,-0.2166,0,0,0,0,0,0,-0.1753,-0.1753,-0.176,-0.1752,-0.175,-0.1737,-0.1753,-0.1753,-0.1762,-0.1828,-0.1844,-0.1755,-0.191,-0.1935,-0.199,-0.1979,-0.2037,-0.2045,-0.2172,-0.2169,-0.2167,-0.2044,0,0,0,0,0,0,-0.1754,-0.1755,-0.1764,-0.1752,-0.175,-0.1741,-0.1752,-0.1752,-0.1745,-0.1747,-0.184,-0.1859,-0.1912,-0.1976,-0.1999,-0.1992,-0.2052,-0.2174,-0.217,-0.2168,-0.205,-0.2038,-0.2027,0,0,0,0,0,-0.1755,-0.1759,-0.1766,-0.1763,-0.1764,-0.1739,-0.1738,-0.1734,-0.1745,-0.1745,-0.1788,-0.1856,-0.1973,-0.1982,-0.2009,-0.2005,-0.2175,-0.2171,-0.2168,-0.2055,-0.204,-0.2027,0,0,0,0,0,0,-0.1766,-0.176,-0.1767,-0.1771,-0.1753,-0.1739,-0.1733,-0.1734,-0.1767,-0.1781,-0.1849,-0.1871,-0.1898,-0.1973,-0.1982,-0.203,-0.2081,-0.2083,-0.1986,-0.1973,-0.1962,-0.1986,-0.2059,0,0,0,0,0,-0.1772,-0.1775,-0.1762,-0.1761,-0.1758,-0.1751,-0.1742,-0.1741,-0.1757,-0.1771,-0.1823,-0.1879,-0.1905,-0.1956,-0.1992,-0.2054,-0.2078,-0.2062,-0.205,-0.204,-0.2074,-0.2057,-0.2047,-0.2154,-0.2154,-0.2154,0,0,-0.1764,-0.1766,-0.1763,-0.1762,-0.1758,-0.1758,-0.1749,-0.1737,-0.1738,-0.1797,-0.1827,-0.1838,-0.1901,-0.1926,-0.1951,-0.1998,-0.2012,-0.2036,-0.2027,-0.2068,-0.2053,-0.2042,-0.2033,-0.2152,-0.2152,-0.2153,0,0,-0.1748,-0.1768,-0.1765,-0.1765,-0.1753,-0.1755,-0.1751,-0.1744,-0.1744,-0.1765,-0.1774,-0.1775,-0.1866,-0.1875,-0.19,-0.1862,-0.1926,-0.1878,-0.188,-0.1861,-0.1852,-0.1845,-0.1815,-0.1807,-0.1903,-0.1903,-0.1902,0,-0.1735,-0.1751,-0.1754,-0.1761,-0.176,-0.1757,-0.1758,-0.1758,-0.1764,-0.1768,-0.1769,-0.1804,-0.1838,-0.1851,-0.1818,-0.1838,-0.1842,-0.1924,-0.1845,-0.1839,-0.1834,-0.1806,-0.1798,-0.1896,-0.1897,-0.1898,-0.1898,0,-0.1722,-0.1742,-0.174,-0.1761,-0.1763,-0.1759,-0.1761,-0.1766,-0.1768,-0.1763,-0.1755,-0.176,-0.1794,-0.1772,-0.1795,-0.1771,-0.1783,-0.1802,-0.1879,-0.1816,-0.179,-0.1784,-0.1887,-0.1889,-0.1891,-0.1893,0,0,-0.1662,-0.1719,-0.1717,-0.1742,-0.1767,-0.1766,-0.1779,-0.178,-0.1794,-0.1775,-0.1778,-0.1755,-0.175,-0.1776,-0.177,-0.1756,-0.1676,-0.1775,-0.1777,-0.1744,-0.1628,-0.152,-0.1504,-0.1681,-0.1681,-0.168,-0.1606,0,-0.1644,-0.1671,-0.1701,-0.1727,-0.1745,-0.1772,-0.1788,-0.1796,-0.1802,-0.1808,-0.1779,-0.1779,-0.1755,-0.1757,-0.1729,-0.1697,-0.1665,-0.1695,-0.1699,-0.17,-0.161,-0.1495,-0.14,-0.1317,-0.1601,-0.16,-0.1599,0,-0.1617,-0.1645,-0.167,-0.1737,-0.1746,-0.176,-0.1802,-0.1813,-0.1827,-0.1834,-0.1827,-0.1819,-0.1782,-0.1767,-0.1692,-0.1716,-0.1672,-0.1637,-0.1634,-0.1589,-0.1582,-0.1436,-0.1296,-0.159,-0.1591,-0.1591,-0.1592,0,-0.1572,-0.1624,-0.1649,-0.1668,-0.1734,-0.1748,-0.1776,-0.181,-0.1827,-0.1845,-0.186,-0.1831,-0.1806,-0.1755,-0.1669,-0.1692,-0.1577,-0.1602,-0.1459,-0.1451,-0.1404,-0.1392,-0.1545,-0.1545,-0.1545,-0.1545,-0.1546,0,-0.1543,-0.1561,-0.1631,-0.1641,-0.1668,-0.1728,-0.1755,-0.1785,-0.1831,-0.1843,-0.1862,-0.1847,-0.1803,-0.1734,-0.1671,-0.1522,-0.1572,-0.1439,-0.1417,-0.135,-0.1335,-0.1625,-0.1636,-0.1543,-0.1543,-0.1544,-0.1544,0,-0.1485,-0.1532,-0.1561,-0.1628,-0.1645,-0.166,-0.1732,-0.175,-0.1814,-0.1831,-0.1838,-0.1844,-0.1741,-0.167,-0.1568,-0.1501,-0.1392,-0.133,-0.1241,-0.1208,-0.1288,-0.1293,-0.118,-0.1175,-0.1171,-0.1168,-0.1165,0,-0.1458,-0.1469,-0.1529,-0.1531,-0.1553,-0.1593,-0.1612,-0.1707,-0.1739,-0.1806,-0.1799,-0.1741,-0.1658,-0.1465,-0.1323,-0.117,-0.1249,-0.1018,-0.1036,-0.1256,-0.1247,-0.1258,-0.1268,-0.0914,-0.091,-0.0906,-0.0903,0,-0.1394,-0.1414,-0.1428,-0.1438,-0.1452,-0.1495,-0.1543,-0.1575,-0.1678,-0.1702,-0.1674,-0.162,-0.1438,-0.1235,-0.1061,-0.0953,-0.1037,-0.0935,-0.1179,-0.1014,-0.0997,-0.0991,-0.1012,-0.087,-0.0873,-0.0875,-0.0877,-0.0879,-0.1323,-0.1314,-0.1326,-0.1322,-0.1349,-0.1381,-0.1383,-0.1436,-0.147,-0.1461,-0.1498,-0.1349,-0.1309,-0.0945,-0.0821,-0.0668,-0.0759,-0.0732,-0.0748,-0.0767,-0.0742,-0.0718,-0.0533,-0.0534,-0.0536,-0.0537,-0.0537,0,-0.1233,-0.1222,-0.121,-0.1215,-0.1198,-0.1271,-0.1317,-0.128,-0.1258,-0.1218,-0.1162,-0.0978,-0.0851,-0.075,-0.049,-0.0433,-0.0442,-0.0379,-0.0457,-0.0488,-0.0517,-0.0484,-0.0205,-0.0204,-0.0203,-0.0202,0,0,-0.1177,-0.1128,-0.1118,-0.105,-0.1068,-0.1057,-0.1065,-0.0989,-0.093,-0.08,-0.0703,-0.0754,-0.0744,-0.0528,-0.046,-0.03,-0.0373,-0.0224,-0.049,-0.0614,-0.0642,-0.0713,-0.0695,0,0,0,0,0]},{"header":{"parameterUnit":"m.s-1","parameterCategory":2,"la1":30.2991,"la2":30.254,"lo1":-89.0895,"lo2":-89.0444,"dy":0.0017,"dx":0.0017,"nx":28,"ny":28,"refTime":"2025-05-17T21:00:00:Z","depth":"2","parameterNumber":3,"parameterNumberName":"V-component_of_CURRENTS"},"data":[0,0,0,0,0,0,0,0,0,0,0,0,0,0,0,0,0,0,0,0,0,0,0,0,0,0,0,0,0,0,0,0,0,0,0,0,0,0,0,0,0,0,0,0,0,0,0,0,0,0,0,0,0,0,0,0,0,0,-0.0444,-0.0444,0,-0.0414,-0.0413,-0.0412,-0.0367,-0.0366,-0.0366,-0.0366,-0.0146,-0.0141,-0.0135,0,0,0,0,0,0,0,0,0,0,0,0,0,-0.0443,-0.0443,-0.0444,-0.0444,-0.0444,-0.0414,-0.0413,-0.0412,-0.0367,-0.0366,-0.0366,-0.0366,-0.0148,-0.0142,-0.0135,0,0,0,0,0,0,0,0,0,0,0,0,0,-0.0426,-0.0443,-0.0444,-0.0422,-0.042,-0.0414,-0.0413,-0.0412,-0.0367,-0.0366,-0.0366,-0.0365,-0.015,-0.0142,-0.0134,-0.0092,0,0,-0.0109,-0.0105,0,0,0,0,0,0,0,0,-0.0427,-0.0425,-0.0425,-0.0423,-0.0421,-0.0398,-0.0333,-0.0297,-0.0367,-0.0381,-0.0366,-0.0365,-0.0217,-0.0203,-0.0193,-0.0082,-0.0072,-0.0108,-0.0103,-0.0099,-0.0097,0,0,0,0,0,0,0,-0.0428,-0.0426,-0.0426,-0.0425,-0.0423,-0.0407,-0.0404,-0.0326,-0.0294,-0.038,-0.0378,-0.0383,-0.0214,-0.0202,-0.0187,-0.0069,-0.0108,-0.0101,-0.0096,-0.0092,0.008,0.008,0,0,0,0,0,0,-0.0445,-0.0428,-0.0428,-0.0426,-0.0429,-0.0408,-0.0404,-0.0402,-0.0299,-0.0286,-0.0384,-0.0381,-0.0216,-0.0197,-0.0179,-0.0117,-0.0099,-0.0092,-0.0087,0.008,0.008,0.008,0,0,0,0,0,0,-0.0444,-0.0444,-0.0429,-0.0431,-0.0429,-0.041,-0.0407,-0.0402,-0.0388,-0.0305,-0.0287,-0.0376,-0.0215,-0.0191,-0.0123,-0.0108,-0.0088,-0.008,0.0081,0.008,0.008,0.0004,0,0,0,0,0,0,-0.0444,-0.0444,-0.0444,-0.0432,-0.0429,-0.0422,-0.0407,-0.0401,-0.0395,-0.0391,-0.0292,-0.0272,-0.0213,-0.0136,-0.0115,-0.0096,-0.0074,0.0081,0.0081,0.008,0.0007,0.0001,-0.0004,0,0,0,0,0,-0.0444,-0.0434,-0.0444,-0.0444,-0.043,-0.0423,-0.0419,-0.04,-0.0395,-0.0386,-0.0334,-0.0275,-0.0126,-0.013,-0.0104,-0.0083,0.0082,0.0081,0.008,0.001,0.0002,-0.0004,0,0,0,0,0,0,-0.0429,-0.0429,-0.0439,-0.043,-0.0432,-0.0417,-0.0404,-0.0404,-0.036,-0.0348,-0.0275,-0.025,-0.0195,-0.013,-0.0137,-0.004,-0.0013,-0.0009,-0.0075,-0.0081,-0.0087,-0.0073,-0.0067,0,0,0,0,0,-0.0432,-0.0427,-0.0432,-0.0428,-0.0425,-0.042,-0.0415,-0.0409,-0.0376,-0.0357,-0.0301,-0.0234,-0.018,-0.0126,-0.0073,-0.0,0.0041,0.0026,0.002,0.0015,0.0041,0.0081,0.0082,0.0077,0.0077,0.0077,0,0,-0.0432,-0.0429,-0.0429,-0.0426,-0.0419,-0.0417,-0.0412,-0.0403,-0.0395,-0.0335,-0.0291,-0.0256,-0.0174,-0.0117,-0.0082,-0.0053,0.0032,0.0014,0.0009,0.0039,0.0081,0.0081,0.0082,0.0076,0.0076,0.0076,0,0,-0.0432,-0.0419,-0.0422,-0.0419,-0.042,-0.041,-0.0413,-0.0403,-0.0385,-0.0352,-0.0321,-0.0278,-0.0182,-0.0129,-0.0086,-0.0083,-0.0019,-0.007,-0.0054,-0.0018,-0.0016,-0.0015,0.0011,0.0016,-0.0049,-0.0049,-0.0049,0,-0.0437,-0.0441,-0.0422,-0.0424,-0.0425,-0.041,-0.0418,-0.0391,-0.0366,-0.0345,-0.034,-0.0243,-0.0183,-0.0108,-0.0114,-0.0091,-0.0068,-0.0037,-0.0025,-0.0022,-0.0019,0.0008,0.0014,-0.0053,-0.0053,-0.0052,-0.0052,0,-0.0448,-0.045,-0.0443,-0.0442,-0.0432,-0.0432,-0.0408,-0.0387,-0.037,-0.0351,-0.0298,-0.024,-0.0175,-0.0161,-0.0126,-0.0075,-0.0069,-0.006,-0.0009,-0.0023,0.0005,0.0013,-0.0058,-0.0057,-0.0056,-0.0055,0,0,-0.0473,-0.046,-0.0461,-0.0463,-0.0446,-0.0436,-0.0405,-0.0377,-0.0346,-0.0316,-0.0282,-0.021,-0.0191,-0.0143,-0.0108,-0.006,-0.0039,-0.0047,-0.0043,-0.0023,0.0032,0.0054,0.0064,-0.0035,-0.0034,-0.0033,0.0033,0,-0.05,-0.051,-0.0493,-0.0492,-0.0493,-0.0458,-0.0426,-0.0388,-0.0348,-0.0302,-0.0241,-0.0199,-0.0178,-0.0158,-0.011,-0.0061,-0.0017,-0.0057,0.0048,0.0051,0.007,0.0075,0.0052,0.0111,0.0041,0.0043,0.0044,0,-0.053,-0.0528,-0.0544,-0.0512,-0.0506,-0.0497,-0.0438,-0.041,-0.0331,-0.0302,-0.0247,-0.0206,-0.0135,-0.0129,-0.0023,-0.0055,-0.0009,0.003,0.0034,0.0098,0.0089,0.0121,0.0129,0.0057,0.0056,0.0055,0.0054,0,-0.0566,-0.056,-0.0571,-0.0567,-0.0529,-0.0516,-0.0488,-0.0416,-0.0396,-0.0311,-0.0296,-0.0198,-0.0163,-0.0088,-0.0005,-0.0017,0.0105,0.0096,0.0162,0.0163,0.0193,0.0194,0.0176,0.0176,0.0175,0.0175,0.0175,0,-0.0606,-0.0609,-0.0588,-0.0595,-0.0581,-0.0543,-0.052,-0.0468,-0.0422,-0.0392,-0.031,-0.026,-0.0153,-0.0072,-0.0,0.0111,0.0109,0.0181,0.0192,0.0162,0.016,0.016,0.0158,0.0178,0.0177,0.0177,0.0176,0,-0.0649,-0.0642,-0.0645,-0.0616,-0.0606,-0.0595,-0.0575,-0.056,-0.0501,-0.0466,-0.0453,-0.032,-0.0184,-0.0077,0.0065,0.0114,0.0217,0.0255,0.0209,0.0215,0.0246,0.0238,0.0337,0.0339,0.034,0.0341,0.0342,0,-0.0673,-0.0686,-0.067,-0.068,-0.0675,-0.0662,-0.0662,-0.0612,-0.0609,-0.049,-0.0485,-0.0333,-0.0196,0.0019,0.0145,0.0284,0.028,0.0321,0.0307,0.0267,0.0268,0.0258,0.0249,0.0301,0.0301,0.0302,0.0302,0,-0.0714,-0.0712,-0.0712,-0.0738,-0.075,-0.0764,-0.0763,-0.0766,-0.0695,-0.062,-0.0476,-0.0344,-0.0115,0.0073,0.0237,0.031,0.0298,0.0335,0.032,0.0263,0.0239,0.0237,0.0228,0.0306,0.0305,0.0305,0.0305,0.0305,-0.0739,-0.0752,-0.0767,-0.0785,-0.0821,-0.0862,-0.0849,-0.0817,-0.0758,-0.0613,-0.0483,-0.0241,-0.0116,0.0173,0.0274,0.0371,0.0374,0.0376,0.0373,0.0369,0.0353,0.0332,0.0413,0.0413,0.0414,0.0414,0.0414,0,-0.0766,-0.0787,-0.0817,-0.0856,-0.092,-0.0919,-0.0914,-0.0874,-0.0757,-0.0582,-0.0393,-0.0184,0.0019,0.0173,0.0329,0.0398,0.0377,0.0409,0.0358,0.0354,0.0351,0.0331,0.0387,0.0387,0.0387,0.0387,0,0,-0.0782,-0.0819,-0.0834,-0.0935,-0.0978,-0.1026,-0.1006,-0.088,-0.0739,-0.0504,-0.0299,-0.013,0.0048,0.0134,0.0224,0.0323,0.0314,0.0328,0.034,0.0263,0.0259,0.0323,0.0289,0,0,0,0,0]}],[{"header":{"parameterUnit":"m.s-1","parameterCategory":2,"la1":30.2991,"la2":30.254,"lo1":-89.0895,"lo2":-89.0444,"dy":0.0017,"dx":0.0017,"nx":28,"ny":28,"refTime":"2025-05-17T21:00:00:Z","depth":"4","parameterNumber":2,"parameterNumberName":"U-component_of_CURRENTS"},"data":[0,0,0,0,0,0,0,0,0,0,0,0,0,0,0,0,0,0,0,0,0,0,0,0,0,0,0,0,0,0,0,0,0,0,0,0,0,0,0,0,0,0,0,0,0,0,0,0,0,0,0,0,0,0,0,0,0,0,-0.1185,-0.1185,0,-0.1236,-0.1237,-0.1237,-0.1263,-0.1263,-0.1264,-0.1264,-0.1317,-0.1318,-0.1319,0,0,0,0,0,0,0,0,0,0,0,0,0,-0.1132,-0.1132,-0.1185,-0.1185,-0.1186,-0.1236,-0.1237,-0.1237,-0.1263,-0.1263,-0.1264,-0.1264,-0.1317,-0.1318,-0.132,0,0,0,0,0,0,0,0,0,0,0,0,0,-0.1163,-0.1132,-0.1184,-0.1208,-0.121,-0.1236,-0.1237,-0.1237,-0.1263,-0.1263,-0.1264,-0.1264,-0.1316,-0.1318,-0.132,-0.1322,0,0,-0.1325,-0.1326,0,0,0,0,0,0,0,0,-0.1161,-0.1165,-0.1203,-0.1206,-0.1209,-0.1246,-0.1238,-0.1267,-0.1263,-0.124,-0.1264,-0.1264,-0.1295,-0.1299,-0.1303,-0.1324,-0.1327,-0.1325,-0.1326,-0.1327,-0.1328,0,0,0,0,0,0,0,-0.1159,-0.1163,-0.1202,-0.1204,-0.1208,-0.1224,-0.1228,-0.1243,-0.1262,-0.1242,-0.1245,-0.1255,-0.1297,-0.1302,-0.1305,-0.1328,-0.1325,-0.1327,-0.1328,-0.1328,-0.1366,-0.1366,0,0,0,0,0,0,-0.1157,-0.1161,-0.1201,-0.1204,-0.1189,-0.1224,-0.1229,-0.1232,-0.1262,-0.1268,-0.1255,-0.1256,-0.1298,-0.1303,-0.1307,-0.1355,-0.1327,-0.1329,-0.133,-0.1366,-0.1366,-0.1366,0,0,0,0,0,0,-0.1155,-0.116,-0.1198,-0.1186,-0.1193,-0.1225,-0.1227,-0.1232,-0.1262,-0.1272,-0.1278,-0.1282,-0.1299,-0.1304,-0.1336,-0.1355,-0.1329,-0.1331,-0.1366,-0.1366,-0.1366,-0.1422,0,0,0,0,0,0,-0.1153,-0.1158,-0.1174,-0.1186,-0.1193,-0.1228,-0.1227,-0.1233,-0.1268,-0.1271,-0.1297,-0.1301,-0.13,-0.1333,-0.1337,-0.1357,-0.1332,-0.1366,-0.1366,-0.1366,-0.142,-0.1424,-0.1427,0,0,0,0,0,-0.1151,-0.1175,-0.1174,-0.118,-0.1209,-0.1229,-0.1235,-0.1257,-0.1269,-0.1285,-0.1301,-0.1302,-0.1335,-0.1335,-0.134,-0.1361,-0.1366,-0.1366,-0.1366,-0.1419,-0.1423,-0.1427,0,0,0,0,0,0,-0.1175,-0.118,-0.118,-0.1208,-0.1222,-0.1235,-0.1265,-0.1272,-0.1298,-0.131,-0.1313,-0.1318,-0.1345,-0.1343,-0.1343,-0.1366,-0.1346,-0.1347,-0.1385,-0.1389,-0.1392,-0.1389,-0.1334,0,0,0,0,0,-0.1182,-0.1193,-0.1201,-0.1226,-0.1237,-0.1253,-0.1271,-0.1282,-0.1301,-0.1314,-0.1327,-0.1337,-0.1344,-0.1361,-0.1362,-0.139,-0.1365,-0.14,-0.1403,-0.1406,-0.1404,-0.1383,-0.1385,-0.1366,-0.1366,-0.1366,0,0,-0.1198,-0.1205,-0.1212,-0.1231,-0.1248,-0.127,-0.1266,-0.1301,-0.132,-0.1316,-0.1354,-0.1353,-0.1351,-0.1373,-0.1385,-0.1381,-0.1397,-0.1406,-0.141,-0.1405,-0.1383,-0.1385,-0.1387,-0.1366,-0.1366,-0.1366,0,0,-0.1228,-0.1243,-0.1257,-0.1272,-0.13,-0.1306,-0.1321,-0.134,-0.1354,-0.1386,-0.1376,-0.1388,-0.1414,-0.1406,-0.1407,-0.1431,-0.141,-0.1433,-0.1462,-0.1442,-0.1444,-0.1445,-0.1413,-0.1411,-0.1442,-0.1442,-0.1442,0,-0.1246,-0.1261,-0.1268,-0.1291,-0.131,-0.1325,-0.1347,-0.1365,-0.1391,-0.1397,-0.1408,-0.1421,-0.1426,-0.1434,-0.1442,-0.1441,-0.1421,-0.1453,-0.1448,-0.1448,-0.1449,-0.1416,-0.1413,-0.1445,-0.1444,-0.1444,-0.1444,0,-0.1271,-0.1299,-0.1317,-0.1338,-0.1361,-0.1388,-0.1406,-0.1429,-0.1449,-0.1455,-0.1473,-0.1473,-0.1475,-0.1479,-0.1477,-0.1477,-0.1459,-0.1451,-0.1442,-0.1454,-0.1418,-0.1414,-0.1449,-0.1448,-0.1447,-0.1446,0,0,-0.1251,-0.1316,-0.1322,-0.1342,-0.1385,-0.1401,-0.1442,-0.1461,-0.1482,-0.1505,-0.1518,-0.1531,-0.1522,-0.152,-0.151,-0.1503,-0.1493,-0.1488,-0.1486,-0.1464,-0.1442,-0.1332,-0.1317,-0.149,-0.149,-0.1489,-0.1416,0,-0.1259,-0.1308,-0.1336,-0.1384,-0.1409,-0.144,-0.147,-0.1497,-0.152,-0.1538,-0.1537,-0.1546,-0.154,-0.1543,-0.1537,-0.1498,-0.1485,-0.1513,-0.1425,-0.1422,-0.133,-0.1309,-0.1488,-0.1412,-0.1411,-0.141,-0.141,0,-0.1254,-0.1288,-0.1339,-0.1398,-0.141,-0.1441,-0.1483,-0.151,-0.1541,-0.1559,-0.1571,-0.157,-0.156,-0.1557,-0.1502,-0.1522,-0.1487,-0.146,-0.1456,-0.133,-0.1304,-0.1396,-0.1402,-0.1403,-0.1403,-0.1404,-0.1404,0,-0.1213,-0.1282,-0.1322,-0.1344,-0.1416,-0.1439,-0.1469,-0.1512,-0.153,-0.1563,-0.1578,-0.1572,-0.1562,-0.1526,-0.1473,-0.1491,-0.1404,-0.1417,-0.1283,-0.1275,-0.1375,-0.1374,-0.1376,-0.1376,-0.1377,-0.1377,-0.1377,0,-0.119,-0.1222,-0.1309,-0.1328,-0.1363,-0.142,-0.1452,-0.1485,-0.1527,-0.153,-0.1575,-0.1566,-0.1557,-0.1512,-0.1468,-0.1343,-0.1392,-0.127,-0.1242,-0.1399,-0.1402,-0.1371,-0.1372,-0.1374,-0.1375,-0.1375,-0.1376,0,-0.1138,-0.1199,-0.1247,-0.1326,-0.1348,-0.1369,-0.1434,-0.1444,-0.1504,-0.151,-0.1518,-0.1549,-0.148,-0.1447,-0.1375,-0.1312,-0.1222,-0.117,-0.1323,-0.1307,-0.1112,-0.1116,-0.1011,-0.1006,-0.1002,-0.0999,-0.0996,0,-0.1114,-0.114,-0.123,-0.1244,-0.1279,-0.1323,-0.1338,-0.1413,-0.1417,-0.1476,-0.1453,-0.1439,-0.1431,-0.1236,-0.1227,-0.1111,-0.1098,-0.1052,-0.1097,-0.1088,-0.1072,-0.1082,-0.1091,-0.099,-0.0989,-0.0988,-0.0987,0,-0.106,-0.1107,-0.1137,-0.1169,-0.1193,-0.1217,-0.1245,-0.1247,-0.131,-0.1388,-0.134,-0.1299,-0.122,-0.1152,-0.1061,-0.0992,-0.1083,-0.1011,-0.102,-0.1062,-0.1061,-0.1052,-0.1065,-0.0974,-0.0975,-0.0977,-0.0978,0,-0.101,-0.1016,-0.1056,-0.1064,-0.109,-0.1074,-0.1121,-0.1112,-0.1135,-0.1212,-0.1189,-0.1177,-0.1207,-0.1088,-0.1007,-0.0919,-0.0908,-0.0882,-0.0897,-0.0912,-0.091,-0.0897,-0.0716,0,0,0,0,0,-0.0954,-0.0937,-0.094,-0.0935,-0.0953,-0.0964,-0.1027,-0.1077,-0.1156,-0.1081,-0.1134,-0.1056,-0.0961,-0.0966,-0.0844,-0.0938,-0.0898,-0.0794,-0.0876,-0.0898,-0.0914,-0.0919,0,0,0,0,0,0,-0.0907,-0.0914,-0.0902,-0.0811,-0.0779,-0.0782,-0.0819,-0.0886,-0.0859,-0.0953,-0.0902,-0.0971,-0.0885,-0.0985,-0.0811,-0.0804,-0.0828,-0.0794,-0.079,-0.0889,-0.0904,-0.0916,-0.0926,0,0,0,0,0]},{"header":{"parameterUnit":"m.s-1","parameterCategory":2,"la1":30.2991,"la2":30.254,"lo1":-89.0895,"lo2":-89.0444,"dy":0.0017,"dx":0.0017,"nx":28,"ny":28,"refTime":"2025-05-17T21:00:00:Z","depth":"4","parameterNumber":3,"parameterNumberName":"V-component_of_CURRENTS"},"data":[0,0,0,0,0,0,0,0,0,0,0,0,0,0,0,0,0,0,0,0,0,0,0,0,0,0,0,0,0,0,0,0,0,0,0,0,0,0,0,0,0,0,0,0,0,0,0,0,0,0,0,0,0,0,0,0,0,0,-0.0355,-0.0355,0,-0.0333,-0.0333,-0.0332,-0.0307,-0.0306,-0.0306,-0.0306,-0.0257,-0.0256,-0.0255,0,0,0,0,0,0,0,0,0,0,0,0,0,-0.0346,-0.0346,-0.0355,-0.0355,-0.0355,-0.0333,-0.0333,-0.0332,-0.0307,-0.0306,-0.0306,-0.0306,-0.0257,-0.0256,-0.0254,0,0,0,0,0,0,0,0,0,0,0,0,0,-0.0338,-0.0347,-0.0355,-0.0341,-0.034,-0.0333,-0.0333,-0.0332,-0.0307,-0.0306,-0.0306,-0.0306,-0.0258,-0.0256,-0.0254,-0.0249,0,0,-0.0249,-0.0248,0,0,0,0,0,0,0,0,-0.0338,-0.0338,-0.0343,-0.0342,-0.0341,-0.0324,-0.0311,-0.0304,-0.0307,-0.0317,-0.0306,-0.0306,-0.0279,-0.0275,-0.0269,-0.0247,-0.0244,-0.0249,-0.0248,-0.0247,-0.0247,0,0,0,0,0,0,0,-0.0339,-0.0338,-0.0344,-0.0343,-0.0342,-0.0327,-0.0325,-0.031,-0.0297,-0.0316,-0.0315,-0.0316,-0.0277,-0.027,-0.0267,-0.0244,-0.0249,-0.0247,-0.0246,-0.0246,-0.0218,-0.0218,0,0,0,0,0,0,-0.0348,-0.0339,-0.0345,-0.0344,-0.0341,-0.0327,-0.0325,-0.0328,-0.0298,-0.0294,-0.0316,-0.0315,-0.0273,-0.0269,-0.0265,-0.0234,-0.0247,-0.0245,-0.0244,-0.0217,-0.0218,-0.0218,0,0,0,0,0,0,-0.0348,-0.0349,-0.0346,-0.0342,-0.0341,-0.0328,-0.0331,-0.0328,-0.0323,-0.0299,-0.0294,-0.0316,-0.0273,-0.0268,-0.025,-0.0233,-0.0245,-0.0243,-0.0217,-0.0218,-0.0218,-0.0186,0,0,0,0,0,0,-0.0348,-0.0349,-0.0354,-0.0343,-0.0342,-0.0341,-0.0331,-0.0328,-0.0326,-0.0324,-0.0297,-0.0292,-0.0272,-0.0252,-0.0248,-0.023,-0.0242,-0.0217,-0.0217,-0.0218,-0.0186,-0.0185,-0.0184,0,0,0,0,0,-0.0348,-0.0346,-0.0354,-0.0355,-0.0349,-0.0342,-0.0339,-0.0327,-0.0326,-0.0323,-0.0304,-0.0293,-0.0253,-0.0251,-0.0246,-0.0227,-0.0217,-0.0217,-0.0218,-0.0187,-0.0185,-0.0184,0,0,0,0,0,0,-0.034,-0.0343,-0.0352,-0.0351,-0.0352,-0.0338,-0.0332,-0.0332,-0.0316,-0.0313,-0.0291,-0.0285,-0.0265,-0.0259,-0.0258,-0.0226,-0.0235,-0.0235,-0.0214,-0.0212,-0.0211,-0.019,-0.024,0,0,0,0,0,-0.0346,-0.0348,-0.035,-0.0352,-0.0351,-0.0347,-0.0343,-0.034,-0.0326,-0.0319,-0.0303,-0.0286,-0.0265,-0.0249,-0.0237,-0.0214,-0.0197,-0.0204,-0.0202,-0.0201,-0.0184,-0.0137,-0.0128,-0.022,-0.022,-0.022,0,0,-0.0346,-0.0347,-0.035,-0.0352,-0.0348,-0.034,-0.0343,-0.0338,-0.0325,-0.0316,-0.0291,-0.0284,-0.0262,-0.0235,-0.0225,-0.0224,-0.0173,-0.0202,-0.02,-0.0183,-0.0136,-0.0127,-0.0118,-0.0221,-0.0221,-0.0221,0,0,-0.0343,-0.0347,-0.0349,-0.0346,-0.0347,-0.0339,-0.0341,-0.0335,-0.0323,-0.0309,-0.0295,-0.0269,-0.0254,-0.0216,-0.0198,-0.0184,-0.0174,-0.02,-0.0161,-0.0116,-0.0107,-0.0099,-0.0088,-0.0079,-0.019,-0.019,-0.019,0,-0.0347,-0.0348,-0.0348,-0.0345,-0.0337,-0.0338,-0.0331,-0.0317,-0.0306,-0.0285,-0.03,-0.0249,-0.0234,-0.017,-0.0168,-0.0174,-0.0168,-0.0163,-0.011,-0.0102,-0.0094,-0.0084,-0.0075,-0.0189,-0.0189,-0.0189,-0.0189,0,-0.0345,-0.0344,-0.034,-0.0336,-0.0325,-0.032,-0.0303,-0.0289,-0.0282,-0.0264,-0.0222,-0.02,-0.0163,-0.0161,-0.0156,-0.0095,-0.0117,-0.0118,-0.0106,-0.0082,-0.0075,-0.0065,-0.0187,-0.0187,-0.0188,-0.0188,0,0,-0.0363,-0.0345,-0.0347,-0.0338,-0.032,-0.0309,-0.0276,-0.0241,-0.0212,-0.0197,-0.0153,-0.011,-0.0103,-0.0083,-0.0074,-0.0031,0.0021,-0.0053,-0.0051,-0.0028,0.0093,0.0064,0.0071,0.0026,0.0028,0.003,0.0068,0,-0.0367,-0.0358,-0.0342,-0.0322,-0.0311,-0.0285,-0.025,-0.0215,-0.0187,-0.0147,-0.0102,-0.0072,-0.0071,-0.0062,-0.0011,0.0003,0.005,0.0009,0.0054,0.0055,0.004,0.0083,0.0037,0.0075,0.0077,0.0079,0.008,0,-0.0377,-0.0364,-0.0353,-0.0307,-0.0298,-0.0285,-0.0223,-0.0194,-0.0127,-0.0105,-0.005,-0.0032,0.0032,0.0017,0.0101,0.0068,0.0091,0.0107,0.0109,0.0084,0.0045,0.005,0.0098,0.0096,0.0095,0.0094,0.0093,0,-0.0395,-0.0367,-0.0356,-0.0346,-0.0299,-0.028,-0.0252,-0.0187,-0.0171,-0.0088,-0.0084,0.0015,0.0022,0.0095,0.0119,0.0112,0.0193,0.019,0.0195,0.0191,0.0191,0.0182,0.0273,0.0273,0.0273,0.0273,0.0273,0,-0.0403,-0.0394,-0.0369,-0.0365,-0.0345,-0.0298,-0.0273,-0.0224,-0.0177,-0.0167,-0.0079,-0.0067,0.0038,0.0084,0.0136,0.0184,0.0212,0.0219,0.0215,0.0196,0.0188,0.0197,0.0187,0.0274,0.0274,0.0274,0.0274,0,-0.0431,-0.0417,-0.0408,-0.037,-0.0363,-0.0353,-0.0332,-0.0318,-0.0259,-0.0249,-0.0236,-0.0142,-0.0064,0.0033,0.0137,0.0175,0.0245,0.0257,0.0212,0.0201,0.0208,0.02,0.0286,0.0286,0.0285,0.0285,0.0285,0,-0.0442,-0.0445,-0.0437,-0.0452,-0.0445,-0.0433,-0.0437,-0.0377,-0.0371,-0.031,-0.0317,-0.023,-0.0162,-0.0028,0.0085,0.0219,0.023,0.026,0.0272,0.023,0.0218,0.0209,0.0202,0.0284,0.0284,0.0284,0.0284,0,-0.0466,-0.0479,-0.0478,-0.0513,-0.0533,-0.0541,-0.0538,-0.0541,-0.0479,-0.0445,-0.0382,-0.0283,-0.0192,-0.0046,0.0059,0.0148,0.0246,0.0257,0.0259,0.027,0.0229,0.0215,0.0208,0.0283,0.0283,0.0283,0.0283,0,-0.0498,-0.0516,-0.0539,-0.0562,-0.0602,-0.0629,-0.0614,-0.0594,-0.057,-0.0486,-0.0477,-0.0339,-0.0248,-0.0086,0.0003,0.0105,0.0134,0.0155,0.0163,0.0165,0.0124,0.0053,0.0068,0,0,0,0,0,-0.0518,-0.0547,-0.0583,-0.0614,-0.0661,-0.0674,-0.0674,-0.0651,-0.0603,-0.0572,-0.0512,-0.0415,-0.0241,-0.0154,-0.0054,-0.0011,0.014,0.0105,0.0164,0.0277,0.0278,0.0249,0,0,0,0,0,0,-0.0535,-0.0578,-0.059,-0.0656,-0.0689,-0.0732,-0.073,-0.0698,-0.0652,-0.059,-0.0486,-0.0416,-0.0235,-0.0302,-0.0062,-0.0028,0.0016,0.02,0.0201,0.0276,0.0278,0.0278,0.0248,0,0,0,0,0]}]]